Home   Weather   Austin   Past weeks

Flag for USA Past Weather in Austin, Texas, USA — Yesterday and Last 2 Weeks

Now
54 °F

Clear.


Feels Like: 51 °F
Forecast: 53 / 76 °F
Wind: 9 mph from West

Location: Camp Mabry / Austin City

Current Time: Feb 21, 2017 at 6:10:28 am

Latest Report: Feb 21, 2017 at 5:51 am


Visibility: 10 mi

Pressure: 29.98 "Hg

Humidity: 69%

Dew Point: 44 °F

Location of AustinLocation

Past Weather in Austin — Graph

°F

Austin Temperature Yesterday

Maximum temperature yesterday: 70 °F (at 3:51 pm)
Minimum temperature yesterday: 58 °F (at 4:26 am)
Average temperature yesterday: 61 °F

High & Low Weather Summary for the Past Weeks

 TemperatureHumidityPressure
High86 °F (Feb 8, 3:51 pm)100% (Feb 20, 4:26 am)30.38 "Hg (Feb 20, 4:26 am)
Low41 °F (Feb 16, 5:51 am)18% (Feb 7, 3:51 pm)29.71 "Hg (Feb 18, 3:51 pm)
Average64 °F68%29.97 "Hg
* Reported Feb 6 4:51 am — Feb 21 4:51 am, Austin, Weather by CustomWeather, © 2017

Note: Actual official high and low records may vary slightly from our data, if they occured in-between our weather recording intervals... More about our weather records

Advertising

Austin Weather History for the Previous 24 Hours

Scroll right to see more
 ConditionsComfort  
Time TempWeatherWind HumidityBarometerVisibility
4:51 am
Tue, Feb 21
55 °FClear.9 mph69%29.96 "Hg10 mi
3:51 am55 °FClear.9 mph72%29.94 "Hg10 mi
2:51 am55 °FClear.8 mph80%29.94 "Hg10 mi
1:51 am56 °FClear.No wind97%29.95 "Hg9 mi
12:51 am57 °FClear.No wind93%29.95 "Hg10 mi
11:51 pm
Mon, Feb 20
59 °FClear.5 mph90%29.94 "Hg10 mi
10:51 pm60 °FPartly cloudy.8 mph86%29.94 "Hg10 mi
10:23 pm60 °FLight rain. Passing clouds.7 mph90%29.97 "Hg10 mi
9:51 pm60 °FClear.3 mph90%29.94 "Hg10 mi
8:51 pm61 °FClear.3 mph87%29.95 "Hg10 mi
7:51 pm64 °FClear.6 mph78%29.94 "Hg10 mi
6:51 pm64 °FClear.3 mph70%29.93 "Hg10 mi
5:51 pm68 °FSunny.3 mph61%29.92 "Hg10 mi
4:51 pm70 °FSunny.5 mph61%29.92 "Hg10 mi
3:51 pm70 °FPassing clouds.6 mph61%29.92 "Hg10 mi
2:51 pm67 °FPassing clouds.5 mph73%29.94 "Hg10 mi
2:10 pm66 °FBroken clouds.6 mph73%29.97 "Hg10 mi
1:51 pm65 °FBroken clouds.No wind78%29.95 "Hg10 mi
12:51 pm64 °FOvercast.3 mph81%29.98 "Hg10 mi
11:51 am62 °FPartly sunny.No wind86%29.98 "Hg10 mi
11:22 am62 °FPartly sunny.No wind90%30.01 "Hg10 mi
10:51 am60 °FLow clouds.3 mph93%30.00 "Hg10 mi
10:11 am60 °FLow clouds.No wind96%30.01 "Hg10 mi
10:04 am60 °FMostly cloudy.No wind96%30.01 "Hg10 mi
9:51 am60 °FMostly cloudy.No wind96%30.01 "Hg10 mi
8:51 am59 °FLight rain. Low clouds.6 mph93%29.97 "Hg10 mi
7:51 am58 °FLight rain. Low clouds.7 mph97%29.96 "Hg10 mi
6:51 am58 °FLow clouds.7 mph97%29.91 "Hg10 mi
6:21 am58 °FPassing clouds.5 mph97%29.93 "Hg10 mi
Weather by CustomWeather, © 2017

See weather overviewHow to use our weather pages